Location: Baix
(44.7118°N, 4.7648°E)
Time: 01:34:21
(UTC+00:00)

Vanguard 1 Rocket - Pass Details

Date: 05 October 2022
Orbit: 650 x 4225 km, 34.3° (Epoch: 05 December)

Event Time Altitude Azimuth Distance (km) Brightness Sun altitude
Rises 18:34:29 0° 235° (SW) 8,421 13.1 -15.0°
Reaches altitude 10° 18:40:56 10° 231° (SW) 7,207 12.5 -16.2°
Maximum altitude 19:02:07 49° 166° (SSE) 3,471 10.1 -19.9°
Enters shadow 19:09:52 28° 111° (ESE) 3,590 9.8 -21.2°
